STARLINK-2458

Last updated on Sat May 08 2021 00:02:04 GMT+0000 (Coordinated Universal Time)

1 48118U 21027AC 21127.58334491 .00057921 00000-0 41414-3 0 9995 2 48118 53.0475 191.7700 0002337 17.1893 274.3711 15.73201296 1773

Satellite not in orbit

STARLINK-2458